Orbital Elements at Epoch 2459000.5 (2020-May-31.0) TDB
Reference: JPL 8 (heliocentric ecliptic J2000)
Element | Value | Uncertainty (1-sigma) | Units |
e | .4807491953468096 | 0.00042597 | |
a | 1.66790755714249 | 0.0012136 | au |
q | .8660623411333752 | 8.0325e-05 | au |
i | .7498808676264112 | 0.00074461 | deg |
node | 258.2877344503181 | 0.010661 | deg |
peri | 278.4870219798865 | 0.0081076 | deg |
M | 156.0483317474775 | 0.95815 | deg |
tp | 2458659.453952342660 (2019-Jun-24.95395234) | 1.7218 | TDB |
period | 786.78557970952 2.15 | 0.85872 0.002351 | d yr |
n | .4575579538874002 | 0.00049939 | deg/d |
Q | 2.469752773151606 | 0.001797 | au |
|
| | Orbit Determination Parameters
Additional Information
|